Time,TemperatureF,DewpointF,PressureIn,WindDirection,WindDirectionDegrees,WindSpeedMPH,WindSpeedGustMPH,Humidity,HourlyPrecipIn,Conditions,Clouds,dailyrainin,SoftwareType,DateUTC
2013-01-31 00:00:00,56.8,56.2,29.37,South,191,2.0,11.0,98,0.02,,CLR,0.29,VWS V14.01,2013-01-31 05:00:00,
2013-01-31 00:05:00,57.0,56.4,29.37,South,183,6.0,12.0,98,0.02,,CLR,0.00,VWS V14.01,2013-01-31 05:05:00,
2013-01-31 00:10:00,57.2,56.6,29.36,West,277,3.0,9.0,98,0.02,,CLR,0.00,VWS V14.01,2013-01-31 05:10:00,
2013-01-31 00:15:00,57.4,56.8,29.35,South,179,1.0,10.0,98,0.02,,CLR,0.00,VWS V14.01,2013-01-31 05:15:00,
2013-01-31 00:20:00,57.5,56.9,29.35,SSW,205,3.0,15.0,98,0.02,,CLR,0.00,VWS V14.01,2013-01-31 05:20:00,
2013-01-31 00:25:00,57.6,57.0,29.34,South,174,11.0,19.0,98,0.02,,CLR,0.00,VWS V14.01,2013-01-31 05:25:00,
2013-01-31 00:30:00,57.8,57.0,29.33,South,189,3.0,10.0,97,0.02,,CLR,0.00,VWS V14.01,2013-01-31 05:30:00,
2013-01-31 00:35:00,57.9,57.1,29.33,SSW,197,7.0,10.0,97,0.01,,CLR,0.00,VWS V14.01,2013-01-31 05:35:00,
2013-01-31 00:40:00,58.0,57.2,29.32,SSW,197,5.0,11.0,97,0.01,,CLR,0.00,VWS V14.01,2013-01-31 05:40:00,
2013-01-31 00:45:00,58.2,57.4,29.32,South,186,7.0,13.0,97,0.01,,CLR,0.00,VWS V14.01,2013-01-31 05:45:00,
2013-01-31 00:50:00,58.3,57.2,29.32,SSW,193,2.0,11.0,96,0.01,,CLR,0.00,VWS V14.01,2013-01-31 05:50:00,
2013-01-31 00:55:00,58.4,57.3,29.30,WSW,250,3.0,14.0,96,0.01,,CLR,0.00,VWS V14.01,2013-01-31 05:55:00,
2013-01-31 01:00:00,58.5,57.4,29.30,North,349,7.0,9.0,96,0.01,,CLR,0.00,VWS V14.01,2013-01-31 06:00:00,
2013-01-31 01:05:00,58.7,57.6,29.30,SSE,153,10.0,11.0,96,0.00,,CLR,0.00,VWS V14.01,2013-01-31 06:05:00,
2013-01-31 01:10:00,58.8,57.4,29.29,SSW,201,4.0,13.0,95,0.00,,CLR,0.00,VWS V14.01,2013-01-31 06:10:00,
2013-01-31 01:15:00,58.8,57.4,29.28,SSW,207,8.0,12.0,95,0.00,,CLR,0.00,VWS V14.01,2013-01-31 06:15:00,
2013-01-31 01:20:00,58.9,57.5,29.28,South,169,5.0,15.0,95,0.00,,CLR,0.00,VWS V14.01,2013-01-31 06:20:00,
2013-01-31 01:25:00,59.1,57.7,29.28,SSE,162,6.0,17.0,95,0.00,,CLR,0.00,VWS V14.01,2013-01-31 06:25:00,
2013-01-31 01:30:00,59.3,57.6,29.27,SSW,203,6.0,16.0,94,0.00,,CLR,0.00,VWS V14.01,2013-01-31 06:30:00,
2013-01-31 01:35:00,59.5,57.5,29.27,South,181,8.0,13.0,93,0.00,,CLR,0.00,VWS V14.01,2013-01-31 06:35:00,
2013-01-31 01:40:00,59.8,57.8,29.27,West,263,5.0,14.0,93,0.00,,CLR,0.00,VWS V14.01,2013-01-31 06:40:00,
2013-01-31 01:45:00,59.8,57.5,29.26,South,172,7.0,16.0,92,0.00,,CLR,0.00,VWS V14.01,2013-01-31 06:45:00,
2013-01-31 01:50:00,59.9,57.9,29.26,SSW,211,17.0,25.0,93,0.00,,CLR,0.00,VWS V14.01,2013-01-31 06:50:00,
2013-01-31 01:55:00,60.0,58.0,29.25,South,187,2.0,13.0,93,0.00,,CLR,0.00,VWS V14.01,2013-01-31 06:55:00,
2013-01-31 02:00:00,59.6,57.9,29.24,South,172,6.0,12.0,94,0.01,,CLR,0.01,VWS V14.01,2013-01-31 07:00:00,
2013-01-31 02:05:00,59.4,57.7,29.23,West,264,1.0,15.0,94,0.02,,CLR,0.02,VWS V14.01,2013-01-31 07:05:00,
2013-01-31 02:10:00,59.2,57.8,29.24,SSE,167,5.0,13.0,95,0.02,,CLR,0.02,VWS V14.01,2013-01-31 07:10:00,
2013-01-31 02:15:00,59.1,57.7,29.24,South,184,18.0,18.0,95,0.02,,CLR,0.02,VWS V14.01,2013-01-31 07:15:00,
2013-01-31 02:20:00,59.1,58.0,29.23,SSE,158,6.0,10.0,96,0.04,,CLR,0.04,VWS V14.01,2013-01-31 07:20:00,
2013-01-31 02:25:00,59.0,57.9,29.23,South,186,3.0,15.0,96,0.04,,CLR,0.04,VWS V14.01,2013-01-31 07:25:00,
2013-01-31 02:30:00,59.1,58.0,29.21,SW,228,4.0,14.0,96,0.04,,CLR,0.04,VWS V14.01,2013-01-31 07:30:00,
2013-01-31 02:35:00,59.1,58.0,29.20,SSW,200,3.0,10.0,96,0.04,,CLR,0.04,VWS V14.01,2013-01-31 07:35:00,
2013-01-31 02:40:00,59.0,57.9,29.20,SSW,201,7.0,7.0,96,0.04,,CLR,0.04,VWS V14.01,2013-01-31 07:40:00,
2013-01-31 02:45:00,59.1,58.0,29.18,SSW,195,6.0,15.0,96,0.04,,CLR,0.04,VWS V14.01,2013-01-31 07:45:00,
2013-01-31 02:50:00,59.3,58.2,29.17,SSE,165,12.0,18.0,96,0.04,,CLR,0.04,VWS V14.01,2013-01-31 07:50:00,
2013-01-31 02:55:00,59.4,58.3,29.17,SW,221,9.0,10.0,96,0.04,,CLR,0.04,VWS V14.01,2013-01-31 07:55:00,
2013-01-31 03:00:00,59.7,58.6,29.16,SSW,193,14.0,14.0,96,0.04,,CLR,0.04,VWS V14.01,2013-01-31 08:00:00,
2013-01-31 03:05:00,59.9,58.5,29.16,West,262,3.0,18.0,95,0.02,,CLR,0.04,VWS V14.01,2013-01-31 08:05:00,
2013-01-31 03:10:00,59.9,59.0,29.15,SW,236,5.0,26.0,95,0.02,,,0.04,weatherlink.com 1.10,2013-01-31 08:10:00,
2013-01-31 03:15:00,60.1,58.7,29.14,SW,225,7.0,16.0,95,0.02,,CLR,0.04,VWS V14.01,2013-01-31 08:15:00,
2013-01-31 03:20:00,60.4,58.7,29.13,South,187,7.0,17.0,94,0.01,,CLR,0.04,VWS V14.01,2013-01-31 08:20:00,
2013-01-31 03:25:00,60.5,58.8,29.12,SSW,203,20.0,20.0,94,0.01,,CLR,0.04,VWS V14.01,2013-01-31 08:25:00,
2013-01-31 03:30:00,60.7,58.7,29.12,SSW,204,3.0,18.0,93,0.01,,CLR,0.04,VWS V14.01,2013-01-31 08:30:00,
2013-01-31 03:35:00,60.9,58.9,29.11,SSW,204,6.0,20.0,93,0.00,,CLR,0.04,VWS V14.01,2013-01-31 08:35:00,
2013-01-31 03:40:00,60.9,58.9,29.11,WSW,246,5.0,21.0,93,0.00,,CLR,0.04,VWS V14.01,2013-01-31 08:40:00,
2013-01-31 03:45:00,60.8,58.8,29.10,SSW,208,7.0,18.0,93,0.00,,CLR,0.04,VWS V14.01,2013-01-31 08:45:00,
2013-01-31 03:50:00,60.8,58.8,29.10,SSE,152,7.0,23.0,93,0.00,,CLR,0.04,VWS V14.01,2013-01-31 08:50:00,
2013-01-31 03:55:00,60.6,58.9,29.09,SSW,212,13.0,13.0,94,0.00,,CLR,0.04,VWS V14.01,2013-01-31 08:55:00,
2013-01-31 04:00:00,60.5,58.8,29.08,SSW,208,11.0,18.0,94,0.00,,CLR,0.04,VWS V14.01,2013-01-31 09:00:00,
2013-01-31 04:05:00,60.7,58.7,29.07,SW,224,5.0,15.0,93,0.00,,CLR,0.04,VWS V14.01,2013-01-31 09:05:00,
2013-01-31 04:10:00,60.8,58.8,29.06,South,190,6.0,20.0,93,0.00,,CLR,0.04,VWS V14.01,2013-01-31 09:10:00,
2013-01-31 04:15:00,60.9,58.9,29.06,SSW,198,5.0,22.0,93,0.00,,CLR,0.04,VWS V14.01,2013-01-31 09:15:00,
2013-01-31 04:20:00,60.9,58.9,29.05,South,172,5.0,19.0,93,0.00,,CLR,0.04,VWS V14.01,2013-01-31 09:20:00,
2013-01-31 04:25:00,60.9,58.9,29.05,SSW,200,8.0,18.0,93,0.00,,CLR,0.04,VWS V14.01,2013-01-31 09:25:00,
2013-01-31 04:30:00,60.8,58.8,29.05,SE,139,15.0,16.0,93,0.00,,CLR,0.04,VWS V14.01,2013-01-31 09:30:00,
2013-01-31 04:35:00,60.6,58.9,29.05,SW,217,11.0,16.0,94,0.00,,CLR,0.04,VWS V14.01,2013-01-31 09:35:00,
2013-01-31 04:40:00,60.6,58.9,29.04,WSW,238,12.0,17.0,94,0.00,,CLR,0.04,VWS V14.01,2013-01-31 09:40:00,
2013-01-31 04:45:00,60.5,58.8,29.03,SSW,212,10.0,17.0,94,0.00,,CLR,0.04,VWS V14.01,2013-01-31 09:45:00,
2013-01-31 04:50:00,60.4,59.0,29.02,SSW,204,10.0,22.0,95,0.00,,CLR,0.04,VWS V14.01,2013-01-31 09:50:00,
2013-01-31 04:55:00,60.5,58.8,29.02,SSW,205,10.0,15.0,94,0.00,,CLR,0.04,VWS V14.01,2013-01-31 09:55:00,
2013-01-31 05:00:00,60.6,58.9,29.02,SSW,198,10.0,14.0,94,0.00,,CLR,0.04,VWS V14.01,2013-01-31 10:00:00,
2013-01-31 05:05:00,60.7,59.0,29.02,West,259,7.0,27.0,94,0.00,,CLR,0.04,VWS V14.01,2013-01-31 10:05:00,
2013-01-31 05:10:00,60.5,58.8,29.01,SW,224,15.0,19.0,94,0.01,,CLR,0.05,VWS V14.01,2013-01-31 10:10:00,
2013-01-31 05:15:00,60.5,58.8,29.00,SSE,167,6.0,21.0,94,0.01,,CLR,0.05,VWS V14.01,2013-01-31 10:15:00,
2013-01-31 05:20:00,60.4,59.0,28.99,SSW,195,5.0,21.0,95,0.03,,CLR,0.07,VWS V14.01,2013-01-31 10:20:00,
2013-01-31 05:25:00,60.2,58.8,28.98,South,184,5.0,13.0,95,0.06,,CLR,0.10,VWS V14.01,2013-01-31 10:25:00,
2013-01-31 05:30:00,60.2,59.1,28.98,SSE,158,20.0,20.0,96,0.07,,CLR,0.11,VWS V14.01,2013-01-31 10:30:00,
2013-01-31 05:35:00,60.2,58.8,28.97,South,180,15.0,18.0,95,0.08,,CLR,0.12,VWS V14.01,2013-01-31 10:35:00,
2013-01-31 05:40:00,60.2,58.8,28.95,SSE,150,20.0,25.0,95,0.08,,CLR,0.12,VWS V14.01,2013-01-31 10:40:00,
2013-01-31 05:45:00,60.2,58.8,28.94,South,190,10.0,15.0,95,0.09,,CLR,0.13,VWS V14.01,2013-01-31 10:45:00,
2013-01-31 05:50:00,60.0,58.6,28.94,South,190,22.0,22.0,95,0.10,,CLR,0.14,VWS V14.01,2013-01-31 10:50:00,
2013-01-31 05:55:00,60.0,58.9,28.93,SW,219,5.0,14.0,96,0.13,,CLR,0.17,VWS V14.01,2013-01-31 10:55:00,
2013-01-31 06:00:00,60.0,58.9,28.93,WSW,238,6.0,18.0,96,0.14,,CLR,0.18,VWS V14.01,2013-01-31 11:00:00,
2013-01-31 06:05:00,60.0,58.9,28.93,SSW,200,10.0,12.0,96,0.14,,CLR,0.18,VWS V14.01,2013-01-31 11:05:00,
2013-01-31 06:10:00,60.0,58.9,28.93,South,181,4.0,11.0,96,0.15,,CLR,0.19,VWS V14.01,2013-01-31 11:10:00,
2013-01-31 06:15:00,60.0,58.9,28.93,SW,215,7.0,17.0,96,0.15,,CLR,0.19,VWS V14.01,2013-01-31 11:15:00,
2013-01-31 06:20:00,60.1,59.0,28.94,SW,228,9.0,21.0,96,0.16,,CLR,0.21,VWS V14.01,2013-01-31 11:20:00,
2013-01-31 06:25:00,60.2,59.1,28.95,SSW,193,6.0,18.0,96,0.17,,CLR,0.22,VWS V14.01,2013-01-31 11:25:00,
2013-01-31 06:30:00,60.4,59.3,28.95,WSW,240,4.0,19.0,96,0.17,,CLR,0.22,VWS V14.01,2013-01-31 11:30:00,
2013-01-31 06:35:00,60.4,59.0,28.95,SW,224,6.0,15.0,95,0.11,,CLR,0.22,VWS V14.01,2013-01-31 11:35:00,
2013-01-31 06:40:00,60.5,59.1,28.95,SW,221,7.0,17.0,95,0.12,,CLR,0.23,VWS V14.01,2013-01-31 11:40:00,
2013-01-31 06:45:00,60.4,58.7,28.96,South,186,4.0,12.0,94,0.13,,CLR,0.24,VWS V14.01,2013-01-31 11:45:00,
2013-01-31 06:50:00,60.2,58.8,28.96,SW,232,8.0,16.0,95,0.12,,CLR,0.25,VWS V14.01,2013-01-31 11:50:00,
2013-01-31 06:55:00,60.0,58.3,28.97,SW,217,11.0,12.0,94,0.12,,CLR,0.25,VWS V14.01,2013-01-31 11:55:00,
2013-01-31 07:00:00,59.9,58.2,28.96,WNW,290,4.0,11.0,94,0.12,,CLR,0.25,VWS V14.01,2013-01-31 12:00:00,
2013-01-31 07:05:00,59.7,57.7,28.95,South,174,3.0,9.0,93,0.07,,CLR,0.25,VWS V14.01,2013-01-31 12:05:00,
2013-01-31 07:10:00,59.4,57.1,28.95,SSW,208,4.0,13.0,92,0.07,,CLR,0.25,VWS V14.01,2013-01-31 12:10:00,
2013-01-31 07:15:00,59.2,56.9,28.94,South,184,11.0,11.0,92,0.07,,CLR,0.25,VWS V14.01,2013-01-31 12:15:00,
2013-01-31 07:20:00,58.9,56.6,28.94,SSE,153,4.0,6.0,92,0.05,,CLR,0.25,VWS V14.01,2013-01-31 12:20:00,
2013-01-31 07:25:00,58.5,56.2,28.93,SSW,212,3.0,15.0,92,0.05,,CLR,0.25,VWS V14.01,2013-01-31 12:25:00,
2013-01-31 07:30:00,58.4,56.1,28.91,South,179,5.0,10.0,92,0.05,,CLR,0.25,VWS V14.01,2013-01-31 12:30:00,
2013-01-31 07:35:00,58.2,55.9,28.92,SSW,212,5.0,8.0,92,0.03,,CLR,0.25,VWS V14.01,2013-01-31 12:35:00,
2013-01-31 07:40:00,58.0,56.0,28.91,South,174,2.0,7.0,93,0.03,,CLR,0.25,VWS V14.01,2013-01-31 12:40:00,
2013-01-31 07:45:00,57.8,55.8,28.91,SSE,155,4.0,10.0,93,0.03,,CLR,0.25,VWS V14.01,2013-01-31 12:45:00,
2013-01-31 07:50:00,57.6,55.6,28.92,SW,221,3.0,7.0,93,0.01,,CLR,0.25,VWS V14.01,2013-01-31 12:50:00,
2013-01-31 07:55:00,57.6,55.3,28.91,SW,219,13.0,13.0,92,0.01,,CLR,0.25,VWS V14.01,2013-01-31 12:55:00,
2013-01-31 08:00:00,57.8,55.2,28.90,SSW,193,4.0,13.0,91,0.01,,CLR,0.25,VWS V14.01,2013-01-31 13:00:00,
2013-01-31 08:05:00,57.9,55.0,28.89,SSE,158,5.0,13.0,90,0.00,,CLR,0.25,VWS V14.01,2013-01-31 13:05:00,
2013-01-31 08:10:00,57.9,55.0,28.90,WSW,246,4.0,10.0,90,0.00,,CLR,0.25,VWS V14.01,2013-01-31 13:10:00,
2013-01-31 08:15:00,57.8,54.9,28.89,SW,228,3.0,11.0,90,0.00,,CLR,0.25,VWS V14.01,2013-01-31 13:15:00,
2013-01-31 08:20:00,57.9,54.7,28.88,South,186,9.0,16.0,89,0.00,,CLR,0.25,VWS V14.01,2013-01-31 13:20:00,
2013-01-31 08:25:00,58.2,54.7,28.89,NNW,347,6.0,17.0,88,0.00,,CLR,0.25,VWS V14.01,2013-01-31 13:25:00,
2013-01-31 08:30:00,58.2,54.7,28.90,SE,142,6.0,14.0,88,0.00,,CLR,0.25,VWS V14.01,2013-01-31 13:30:00,
2013-01-31 08:35:00,58.2,54.4,28.89,SSW,205,12.0,12.0,87,0.00,,CLR,0.25,VWS V14.01,2013-01-31 13:35:00,
2013-01-31 08:40:00,58.2,54.4,28.89,SW,225,10.0,13.0,87,0.00,,CLR,0.25,VWS V14.01,2013-01-31 13:40:00,
2013-01-31 08:45:00,58.1,54.3,28.89,SSW,201,3.0,12.0,87,0.00,,CLR,0.25,VWS V14.01,2013-01-31 13:45:00,
2013-01-31 08:50:00,58.0,54.2,28.89,South,184,14.0,14.0,87,0.00,,CLR,0.25,VWS V14.01,2013-01-31 13:50:00,
2013-01-31 08:55:00,58.1,53.9,28.88,SW,233,4.0,11.0,86,0.00,,CLR,0.25,VWS V14.01,2013-01-31 13:55:00,
2013-01-31 09:00:00,58.1,53.9,28.88,South,176,4.0,20.0,86,0.00,,CLR,0.25,VWS V14.01,2013-01-31 14:00:00,
2013-01-31 09:05:00,58.0,53.8,28.90,WNW,302,3.0,12.0,86,0.00,,CLR,0.25,VWS V14.01,2013-01-31 14:05:00,
2013-01-31 09:10:00,54.7,48.3,28.94,SSW,205,6.0,15.0,79,0.03,,CLR,0.28,VWS V14.01,2013-01-31 14:10:00,
2013-01-31 09:15:00,49.1,44.2,28.96,SSW,201,5.0,17.0,83,0.07,,CLR,0.32,VWS V14.01,2013-01-31 14:15:00,
2013-01-31 09:20:00,46.4,42.5,28.97,WSW,256,9.0,14.0,86,0.08,,CLR,0.33,VWS V14.01,2013-01-31 14:20:00,
2013-01-31 09:25:00,45.1,41.8,28.97,SW,222,10.0,12.0,88,0.09,,CLR,0.34,VWS V14.01,2013-01-31 14:25:00,
2013-01-31 09:30:00,44.3,40.7,28.98,WSW,249,12.0,17.0,87,0.11,,CLR,0.36,VWS V14.01,2013-01-31 14:30:00,
2013-01-31 09:35:00,43.9,40.9,28.99,SSW,207,4.0,10.0,89,0.11,,CLR,0.36,VWS V14.01,2013-01-31 14:35:00,
2013-01-31 09:40:00,43.6,40.3,28.99,West,274,4.0,14.0,88,0.11,,CLR,0.36,VWS V14.01,2013-01-31 14:40:00,
2013-01-31 09:45:00,43.5,40.2,29.00,West,266,7.0,13.0,88,0.11,,CLR,0.36,VWS V14.01,2013-01-31 14:45:00,
2013-01-31 09:50:00,43.4,40.1,29.01,WSW,238,15.0,15.0,88,0.11,,CLR,0.36,VWS V14.01,2013-01-31 14:50:00,
2013-01-31 09:55:00,43.2,39.9,29.01,NW,322,2.0,14.0,88,0.11,,CLR,0.36,VWS V14.01,2013-01-31 14:55:00,
2013-01-31 10:00:00,43.0,40.0,29.01,NW,323,2.0,11.0,89,0.11,,CLR,0.36,VWS V14.01,2013-01-31 15:00:00,
2013-01-31 10:05:00,42.7,40.0,29.01,East,98,2.0,8.0,90,0.12,,CLR,0.37,VWS V14.01,2013-01-31 15:05:00,
2013-01-31 10:10:00,42.2,39.8,29.02,SW,222,0.0,7.0,91,0.12,,CLR,0.37,VWS V14.01,2013-01-31 15:10:00,
2013-01-31 10:15:00,42.0,39.3,29.02,South,187,2.0,10.0,90,0.12,,CLR,0.37,VWS V14.01,2013-01-31 15:15:00,
2013-01-31 10:20:00,42.0,38.4,29.02,WSW,249,2.0,11.0,87,0.05,,CLR,0.37,VWS V14.01,2013-01-31 15:20:00,
2013-01-31 10:25:00,42.3,38.4,29.01,WNW,288,7.0,12.0,86,0.05,,CLR,0.37,VWS V14.01,2013-01-31 15:25:00,
2013-01-31 10:30:00,42.7,38.8,29.02,WNW,294,4.0,11.0,86,0.05,,CLR,0.37,VWS V14.01,2013-01-31 15:30:00,
2013-01-31 10:35:00,43.0,38.5,29.03,WSW,254,11.0,11.0,84,0.01,,CLR,0.37,VWS V14.01,2013-01-31 15:35:00,
2013-01-31 10:40:00,43.1,38.3,29.05,South,169,5.0,12.0,83,0.01,,CLR,0.37,VWS V14.01,2013-01-31 15:40:00,
2013-01-31 10:45:00,43.4,38.6,29.05,WSW,244,6.0,9.0,83,0.01,,CLR,0.37,VWS V14.01,2013-01-31 15:45:00,
2013-01-31 10:50:00,43.7,38.0,29.05,SE,127,3.0,11.0,80,0.01,,CLR,0.37,VWS V14.01,2013-01-31 15:50:00,
2013-01-31 10:55:00,44.0,37.3,29.07,SSW,213,7.0,18.0,77,0.01,,CLR,0.37,VWS V14.01,2013-01-31 15:55:00,
2013-01-31 11:00:00,44.2,37.1,29.07,WSW,248,9.0,11.0,76,0.01,,CLR,0.37,VWS V14.01,2013-01-31 16:00:00,
2013-01-31 11:05:00,44.1,36.7,29.08,West,279,5.0,11.0,75,0.01,,CLR,0.37,VWS V14.01,2013-01-31 16:05:00,
2013-01-31 11:10:00,44.2,36.8,29.08,WSW,255,5.0,14.0,75,0.01,,CLR,0.37,VWS V14.01,2013-01-31 16:10:00,
2013-01-31 11:15:00,44.1,35.3,29.08,SW,231,5.0,14.0,71,0.01,,CLR,0.37,VWS V14.01,2013-01-31 16:15:00,
2013-01-31 11:20:00,44.3,34.8,29.08,West,274,11.0,14.0,69,0.00,,CLR,0.37,VWS V14.01,2013-01-31 16:20:00,
2013-01-31 11:25:00,44.2,33.6,29.09,West,274,6.0,13.0,66,0.00,,CLR,0.37,VWS V14.01,2013-01-31 16:25:00,
2013-01-31 11:30:00,43.9,32.5,29.09,West,271,9.0,19.0,64,0.00,,CLR,0.37,VWS V14.01,2013-01-31 16:30:00,
2013-01-31 11:35:00,43.4,32.0,29.09,SW,219,5.0,10.0,64,0.00,,CLR,0.37,VWS V14.01,2013-01-31 16:35:00,
2013-01-31 11:40:00,43.0,30.9,29.10,South,181,3.0,18.0,62,0.00,,CLR,0.37,VWS V14.01,2013-01-31 16:40:00,
2013-01-31 11:45:00,43.0,32.1,29.10,WSW,244,6.0,13.0,65,0.00,,CLR,0.37,VWS V14.01,2013-01-31 16:45:00,
2013-01-31 11:50:00,43.1,32.2,29.10,West,261,6.0,16.0,65,0.00,,CLR,0.37,VWS V14.01,2013-01-31 16:50:00,
2013-01-31 11:55:00,43.1,31.8,29.11,WNW,301,6.0,19.0,64,0.00,,CLR,0.37,VWS V14.01,2013-01-31 16:55:00,
2013-01-31 12:00:00,43.1,31.4,29.11,SSE,155,2.0,22.0,63,0.00,,CLR,0.37,VWS V14.01,2013-01-31 17:00:00,
2013-01-31 12:05:00,43.2,31.1,29.11,WSW,256,13.0,20.0,62,0.00,,CLR,0.37,VWS V14.01,2013-01-31 17:05:00,
2013-01-31 12:10:00,43.5,31.0,29.11,WNW,288,9.0,14.0,61,0.00,,CLR,0.37,VWS V14.01,2013-01-31 17:10:00,
2013-01-31 12:15:00,43.8,31.2,29.12,SE,145,3.0,19.0,61,0.00,,CLR,0.37,VWS V14.01,2013-01-31 17:15:00,
2013-01-31 12:20:00,44.1,30.7,29.12,West,266,4.0,16.0,59,0.00,,CLR,0.37,VWS V14.01,2013-01-31 17:20:00,
2013-01-31 12:25:00,43.9,30.5,29.12,WNW,290,4.0,16.0,59,0.00,,CLR,0.37,VWS V14.01,2013-01-31 17:25:00,
2013-01-31 12:30:00,43.9,29.7,29.12,WSW,255,7.0,15.0,57,0.00,,CLR,0.37,VWS V14.01,2013-01-31 17:30:00,
2013-01-31 12:35:00,43.9,30.1,29.12,NNW,338,5.0,12.0,58,0.00,,CLR,0.37,VWS V14.01,2013-01-31 17:35:00,
2013-01-31 12:40:00,43.8,29.6,29.12,WSW,240,14.0,19.0,57,0.00,,CLR,0.37,VWS V14.01,2013-01-31 17:40:00,
2013-01-31 12:45:00,43.5,29.0,29.13,WSW,246,4.0,19.0,56,0.00,,,0.37,weatherlink.com 1.10,2013-01-31 17:45:00,
2013-01-31 12:50:00,43.5,28.9,29.13,West,260,8.0,21.0,56,0.00,,CLR,0.37,VWS V14.01,2013-01-31 17:50:00,
2013-01-31 12:55:00,44.0,29.8,29.13,SSW,203,4.0,6.0,57,0.00,,CLR,0.37,VWS V14.01,2013-01-31 17:55:00,
2013-01-31 13:00:00,44.3,29.2,29.13,West,277,10.0,13.0,55,0.00,,CLR,0.37,VWS V14.01,2013-01-31 18:00:00,
2013-01-31 13:05:00,44.1,28.1,29.14,WNW,298,3.0,9.0,53,0.00,,CLR,0.37,VWS V14.01,2013-01-31 18:05:00,
2013-01-31 13:10:00,44.0,27.5,29.14,WNW,302,11.0,21.0,52,0.00,,CLR,0.37,VWS V14.01,2013-01-31 18:10:00,
2013-01-31 13:15:00,43.9,27.9,29.14,SW,233,6.0,13.0,53,0.00,,CLR,0.37,VWS V14.01,2013-01-31 18:15:00,
2013-01-31 13:20:00,43.7,27.7,29.15,West,276,16.0,16.0,53,0.00,,CLR,0.37,VWS V14.01,2013-01-31 18:20:00,
2013-01-31 13:25:00,43.2,27.7,29.15,NW,315,12.0,21.0,54,0.00,,CLR,0.37,VWS V14.01,2013-01-31 18:25:00,
2013-01-31 13:30:00,42.4,27.8,29.16,ENE,69,7.0,14.0,56,0.00,,CLR,0.37,VWS V14.01,2013-01-31 18:30:00,
2013-01-31 13:35:00,41.9,27.4,29.16,West,274,4.0,10.0,56,0.00,,CLR,0.37,VWS V14.01,2013-01-31 18:35:00,
2013-01-31 13:40:00,41.6,27.1,29.17,WNW,291,8.0,10.0,56,0.00,,CLR,0.37,VWS V14.01,2013-01-31 18:40:00,
2013-01-31 13:45:00,41.8,26.8,29.17,SSW,207,1.0,10.0,55,0.00,,CLR,0.37,VWS V14.01,2013-01-31 18:45:00,
2013-01-31 13:50:00,41.9,26.5,29.17,SW,226,13.0,13.0,54,0.00,,CLR,0.37,VWS V14.01,2013-01-31 18:50:00,
2013-01-31 13:55:00,42.1,26.7,29.18,West,274,3.0,6.0,54,0.00,,CLR,0.37,VWS V14.01,2013-01-31 18:55:00,
2013-01-31 14:00:00,42.5,26.6,29.18,WSW,257,3.0,12.0,53,0.00,,CLR,0.37,VWS V14.01,2013-01-31 19:00:00,
2013-01-31 14:05:00,42.5,25.7,29.18,WSW,246,7.0,16.0,51,0.00,,CLR,0.37,VWS V14.01,2013-01-31 19:05:00,
2013-01-31 14:10:00,42.7,24.9,29.19,WNW,294,3.0,15.0,49,0.00,,CLR,0.37,VWS V14.01,2013-01-31 19:10:00,
2013-01-31 14:15:00,42.7,25.4,29.19,South,174,3.0,10.0,50,0.00,,CLR,0.37,VWS V14.01,2013-01-31 19:15:00,
2013-01-31 14:20:00,42.9,22.5,29.18,SSW,194,8.0,17.0,44,0.00,,CLR,0.37,VWS V14.01,2013-01-31 19:20:00,
2013-01-31 14:25:00,42.8,21.3,29.19,West,263,17.0,17.0,42,0.00,,CLR,0.37,VWS V14.01,2013-01-31 19:25:00,
2013-01-31 14:30:00,42.5,21.0,29.19,WSW,242,5.0,17.0,42,0.00,,CLR,0.37,VWS V14.01,2013-01-31 19:30:00,
2013-01-31 14:35:00,42.8,23.0,29.20,SW,228,4.0,8.0,45,0.00,,CLR,0.37,VWS V14.01,2013-01-31 19:35:00,
2013-01-31 14:40:00,43.2,22.8,29.20,SSE,162,1.0,8.0,44,0.00,,CLR,0.37,VWS V14.01,2013-01-31 19:40:00,
2013-01-31 14:45:00,42.8,20.8,29.20,West,266,14.0,16.0,41,0.00,,CLR,0.37,VWS V14.01,2013-01-31 19:45:00,
2013-01-31 14:50:00,42.3,20.3,29.21,SW,235,7.0,17.0,41,0.00,,CLR,0.37,VWS V14.01,2013-01-31 19:50:00,
2013-01-31 14:55:00,42.2,20.2,29.22,SW,219,7.0,23.0,41,0.00,,CLR,0.37,VWS V14.01,2013-01-31 19:55:00,
2013-01-31 15:00:00,42.1,20.7,29.23,SW,218,7.0,13.0,42,0.00,,CLR,0.37,VWS V14.01,2013-01-31 20:00:00,
2013-01-31 15:05:00,41.9,20.5,29.23,SSW,194,7.0,18.0,42,0.00,,CLR,0.37,VWS V14.01,2013-01-31 20:05:00,
2013-01-31 15:10:00,41.2,22.0,29.24,SW,215,2.0,9.0,46,0.00,,CLR,0.37,VWS V14.01,2013-01-31 20:10:00,
2013-01-31 15:15:00,40.5,22.4,29.24,SE,128,3.0,9.0,48,0.00,,CLR,0.37,VWS V14.01,2013-01-31 20:15:00,
2013-01-31 15:20:00,39.9,22.3,29.25,SW,224,2.0,12.0,49,0.00,,CLR,0.37,VWS V14.01,2013-01-31 20:20:00,
2013-01-31 15:25:00,39.5,21.5,29.25,NW,305,9.0,12.0,48,0.00,,CLR,0.37,VWS V14.01,2013-01-31 20:25:00,
2013-01-31 15:30:00,39.3,22.2,29.26,West,271,6.0,6.0,50,0.00,,CLR,0.37,VWS V14.01,2013-01-31 20:30:00,
2013-01-31 15:35:00,39.3,22.2,29.26,SW,236,3.0,9.0,50,0.00,,CLR,0.37,VWS V14.01,2013-01-31 20:35:00,
2013-01-31 15:40:00,39.2,21.7,29.26,NW,313,15.0,15.0,49,0.00,,CLR,0.37,VWS V14.01,2013-01-31 20:40:00,
2013-01-31 15:45:00,39.1,21.6,29.27,West,266,3.0,11.0,49,0.00,,CLR,0.37,VWS V14.01,2013-01-31 20:45:00,
2013-01-31 15:50:00,39.1,22.0,29.27,WNW,295,3.0,10.0,50,0.00,,CLR,0.37,VWS V14.01,2013-01-31 20:50:00,
2013-01-31 15:55:00,39.0,22.4,29.27,WSW,256,2.0,6.0,51,0.00,,CLR,0.37,VWS V14.01,2013-01-31 20:55:00,
2013-01-31 16:00:00,38.8,22.2,29.28,NE,50,3.0,8.0,51,0.00,,CLR,0.37,VWS V14.01,2013-01-31 21:00:00,
2013-01-31 16:05:00,38.5,22.4,29.28,ESE,113,1.0,5.0,52,0.00,,CLR,0.37,VWS V14.01,2013-01-31 21:05:00,
2013-01-31 16:10:00,38.4,22.3,29.28,SSW,195,0.0,6.0,52,0.00,,CLR,0.37,VWS V14.01,2013-01-31 21:10:00,
2013-01-31 16:15:00,38.3,21.3,29.29,WSW,243,12.0,12.0,50,0.00,,CLR,0.37,VWS V14.01,2013-01-31 21:15:00,
2013-01-31 16:20:00,38.3,21.3,29.29,North,350,4.0,9.0,50,0.00,,CLR,0.37,VWS V14.01,2013-01-31 21:20:00,
2013-01-31 16:25:00,38.3,21.3,29.28,WNW,297,9.0,13.0,50,0.00,,CLR,0.37,VWS V14.01,2013-01-31 21:25:00,
2013-01-31 16:30:00,38.1,21.6,29.29,WSW,257,5.0,5.0,51,0.00,,CLR,0.37,VWS V14.01,2013-01-31 21:30:00,
2013-01-31 16:35:00,37.9,20.9,29.30,WSW,243,3.0,8.0,50,0.00,,CLR,0.37,VWS V14.01,2013-01-31 21:35:00,
2013-01-31 16:40:00,37.8,21.3,29.30,WSW,255,7.0,10.0,51,0.00,,CLR,0.37,VWS V14.01,2013-01-31 21:40:00,
2013-01-31 16:45:00,37.6,21.1,29.30,SSW,207,2.0,7.0,51,0.00,,CLR,0.37,VWS V14.01,2013-01-31 21:45:00,
2013-01-31 16:50:00,37.5,21.5,29.30,SW,221,4.0,8.0,52,0.00,,CLR,0.37,VWS V14.01,2013-01-31 21:50:00,
2013-01-31 16:55:00,37.5,21.5,29.30,SW,235,12.0,12.0,52,0.00,,CLR,0.37,VWS V14.01,2013-01-31 21:55:00,
2013-01-31 17:00:00,37.4,21.4,29.31,SSW,195,7.0,7.0,52,0.00,,CLR,0.37,VWS V14.01,2013-01-31 22:00:00,
2013-01-31 17:05:00,37.3,21.3,29.32,West,267,2.0,7.0,52,0.00,,CLR,0.37,VWS V14.01,2013-01-31 22:05:00,
2013-01-31 17:10:00,37.3,21.8,29.32,NW,314,9.0,9.0,53,0.00,,CLR,0.37,VWS V14.01,2013-01-31 22:10:00,
2013-01-31 17:15:00,36.9,22.7,29.33,SSW,203,4.0,7.0,56,0.00,,CLR,0.37,VWS V14.01,2013-01-31 22:15:00,
2013-01-31 17:20:00,36.5,22.7,29.33,NNW,345,3.0,11.0,57,0.00,,CLR,0.37,VWS V14.01,2013-01-31 22:20:00,
2013-01-31 17:25:00,36.3,21.7,29.33,SW,225,5.0,18.0,55,0.00,,CLR,0.37,VWS V14.01,2013-01-31 22:25:00,
2013-01-31 17:30:00,36.1,21.5,29.34,SW,222,6.0,11.0,55,0.00,,CLR,0.37,VWS V14.01,2013-01-31 22:30:00,
2013-01-31 17:35:00,36.0,21.4,29.34,West,269,2.0,12.0,55,0.00,,CLR,0.37,VWS V14.01,2013-01-31 22:35:00,
2013-01-31 17:40:00,35.8,20.8,29.35,SW,236,4.0,9.0,54,0.00,,CLR,0.37,VWS V14.01,2013-01-31 22:40:00,
2013-01-31 17:45:00,35.6,21.5,29.34,WSW,257,12.0,12.0,56,0.00,,CLR,0.37,VWS V14.01,2013-01-31 22:45:00,
2013-01-31 17:50:00,35.4,21.3,29.35,SW,225,3.0,4.0,56,0.00,,CLR,0.37,VWS V14.01,2013-01-31 22:50:00,
2013-01-31 17:55:00,35.2,21.1,29.36,WNW,284,3.0,12.0,56,0.00,,CLR,0.37,VWS V14.01,2013-01-31 22:55:00,
2013-01-31 18:00:00,34.9,21.2,29.35,WNW,291,3.0,3.0,57,0.00,,CLR,0.37,VWS V14.01,2013-01-31 23:00:00,
2013-01-31 18:05:00,34.8,21.5,29.36,SW,224,5.0,8.0,58,0.00,,CLR,0.37,VWS V14.01,2013-01-31 23:05:00,
2013-01-31 18:10:00,34.7,21.9,29.37,WSW,247,1.0,9.0,59,0.00,,CLR,0.37,VWS V14.01,2013-01-31 23:10:00,
2013-01-31 18:15:00,34.5,21.7,29.37,West,270,4.0,7.0,59,0.00,,CLR,0.37,VWS V14.01,2013-01-31 23:15:00,
2013-01-31 18:20:00,34.5,21.7,29.37,West,264,7.0,14.0,59,0.00,,CLR,0.37,VWS V14.01,2013-01-31 23:20:00,
2013-01-31 18:25:00,34.5,22.1,29.38,SW,222,3.0,10.0,60,0.00,,CLR,0.37,VWS V14.01,2013-01-31 23:25:00,
2013-01-31 18:30:00,34.2,22.5,29.38,SW,219,4.0,11.0,62,0.00,,CLR,0.37,VWS V14.01,2013-01-31 23:30:00,
2013-01-31 18:35:00,33.9,22.6,29.38,NW,320,1.0,9.0,63,0.00,,CLR,0.37,VWS V14.01,2013-01-31 23:35:00,
2013-01-31 18:40:00,33.6,22.7,29.39,SW,236,6.0,8.0,64,0.00,,CLR,0.37,VWS V14.01,2013-01-31 23:40:00,
2013-01-31 18:45:00,33.5,22.6,29.39,NW,317,2.0,12.0,64,0.00,,CLR,0.37,VWS V14.01,2013-01-31 23:45:00,
2013-01-31 18:50:00,33.4,22.9,29.39,WSW,239,1.0,5.0,65,0.00,,CLR,0.37,VWS V14.01,2013-01-31 23:50:00,
2013-01-31 18:55:00,33.2,22.7,29.39,SW,229,0.0,11.0,65,0.00,,CLR,0.37,VWS V14.01,2013-01-31 23:55:00,
2013-01-31 19:00:00,33.1,22.6,29.40,SSW,205,1.0,5.0,65,0.00,,CLR,0.37,VWS V14.01,2013-02-01 00:00:00,
2013-01-31 19:05:00,32.9,22.4,29.40,West,261,3.0,5.0,65,0.00,,CLR,0.37,VWS V14.01,2013-02-01 00:05:00,
2013-01-31 19:10:00,32.9,21.7,29.39,WSW,257,6.0,8.0,63,0.00,,CLR,0.37,VWS V14.01,2013-02-01 00:10:00,
2013-01-31 19:15:00,33.1,21.5,29.40,WSW,249,4.0,12.0,62,0.00,,CLR,0.37,VWS V14.01,2013-02-01 00:15:00,
2013-01-31 19:20:00,33.0,21.8,29.41,SW,236,5.0,6.0,63,0.00,,CLR,0.37,VWS V14.01,2013-02-01 00:20:00,
2013-01-31 19:25:00,32.9,21.3,29.42,SW,233,3.0,10.0,62,0.00,,CLR,0.37,VWS V14.01,2013-02-01 00:25:00,
2013-01-31 19:30:00,33.0,21.4,29.42,SW,221,10.0,11.0,62,0.00,,CLR,0.37,VWS V14.01,2013-02-01 00:30:00,
2013-01-31 19:35:00,32.9,21.3,29.42,SW,236,5.0,8.0,62,0.00,,CLR,0.37,VWS V14.01,2013-02-01 00:35:00,
2013-01-31 19:40:00,32.9,21.3,29.42,NNW,335,4.0,9.0,62,0.00,,CLR,0.37,VWS V14.01,2013-02-01 00:40:00,
2013-01-31 19:45:00,32.9,21.3,29.43,WNW,285,4.0,17.0,62,0.00,,CLR,0.37,VWS V14.01,2013-02-01 00:45:00,
2013-01-31 19:50:00,32.8,21.2,29.42,SSW,197,2.0,14.0,62,0.00,,CLR,0.37,VWS V14.01,2013-02-01 00:50:00,
2013-01-31 19:55:00,32.7,20.8,29.42,NNW,339,3.0,15.0,61,0.00,,CLR,0.37,VWS V14.01,2013-02-01 00:55:00,
2013-01-31 20:00:00,32.4,20.5,29.43,West,259,6.0,8.0,61,0.00,,CLR,0.37,VWS V14.01,2013-02-01 01:00:00,
2013-01-31 20:05:00,32.3,20.8,29.43,SW,231,8.0,12.0,62,0.00,,CLR,0.37,VWS V14.01,2013-02-01 01:05:00,
2013-01-31 20:10:00,32.1,20.6,29.43,WSW,257,2.0,10.0,62,0.00,,CLR,0.37,VWS V14.01,2013-02-01 01:10:00,
2013-01-31 20:15:00,31.9,20.8,29.43,SSW,200,5.0,10.0,63,0.00,,CLR,0.37,VWS V14.01,2013-02-01 01:15:00,
2013-01-31 20:20:00,31.8,19.9,29.44,West,273,6.0,10.0,61,0.00,,CLR,0.37,VWS V14.01,2013-02-01 01:20:00,
2013-01-31 20:25:00,31.7,20.2,29.44,West,260,6.0,7.0,62,0.00,,CLR,0.37,VWS V14.01,2013-02-01 01:25:00,
2013-01-31 20:30:00,31.6,19.7,29.44,WSW,257,6.0,12.0,61,0.00,,CLR,0.37,VWS V14.01,2013-02-01 01:30:00,
2013-01-31 20:35:00,31.7,19.4,29.45,WSW,258,3.0,12.0,60,0.00,,CLR,0.37,VWS V14.01,2013-02-01 01:35:00,
2013-01-31 20:40:00,31.6,18.9,29.45,WNW,286,5.0,11.0,59,0.00,,CLR,0.37,VWS V14.01,2013-02-01 01:40:00,
2013-01-31 20:45:00,31.6,19.3,29.45,West,276,1.0,11.0,60,0.00,,CLR,0.37,VWS V14.01,2013-02-01 01:45:00,
2013-01-31 20:50:00,31.4,19.5,29.45,West,264,2.0,10.0,61,0.00,,CLR,0.37,VWS V14.01,2013-02-01 01:50:00,
2013-01-31 20:55:00,31.4,19.5,29.46,SSW,212,1.0,15.0,61,0.00,,CLR,0.37,VWS V14.01,2013-02-01 01:55:00,
2013-01-31 21:00:00,31.2,19.7,29.46,SSW,194,1.0,4.0,62,0.00,,CLR,0.37,VWS V14.01,2013-02-01 02:00:00,
2013-01-31 21:05:00,31.0,19.9,29.46,SSW,205,5.0,13.0,63,0.00,,CLR,0.37,VWS V14.01,2013-02-01 02:05:00,
2013-01-31 21:10:00,31.0,19.9,29.47,NNW,333,9.0,11.0,63,0.00,,CLR,0.37,VWS V14.01,2013-02-01 02:10:00,
2013-01-31 21:15:00,30.9,19.8,29.47,WNW,285,15.0,15.0,63,0.00,,CLR,0.37,VWS V14.01,2013-02-01 02:15:00,
2013-01-31 21:20:00,30.8,20.1,29.47,SSE,166,3.0,5.0,64,0.00,,CLR,0.37,VWS V14.01,2013-02-01 02:20:00,
2013-01-31 21:25:00,30.6,19.9,29.48,SW,226,4.0,10.0,64,0.00,,CLR,0.37,VWS V14.01,2013-02-01 02:25:00,
2013-01-31 21:30:00,30.5,19.8,29.48,West,263,13.0,13.0,64,0.00,,CLR,0.37,VWS V14.01,2013-02-01 02:30:00,
2013-01-31 21:35:00,30.4,19.7,29.48,West,276,8.0,8.0,64,0.00,,CLR,0.37,VWS V14.01,2013-02-01 02:35:00,
2013-01-31 21:40:00,30.2,19.5,29.48,SW,225,4.0,7.0,64,0.00,,CLR,0.37,VWS V14.01,2013-02-01 02:40:00,
2013-01-31 21:45:00,30.0,19.7,29.49,West,264,2.0,7.0,65,0.00,,CLR,0.37,VWS V14.01,2013-02-01 02:45:00,
2013-01-31 21:50:00,30.1,18.7,29.49,SSE,155,2.0,9.0,62,0.00,,CLR,0.37,VWS V14.01,2013-02-01 02:50:00,
2013-01-31 21:55:00,30.1,18.3,29.49,SSW,194,2.0,12.0,61,0.00,,CLR,0.37,VWS V14.01,2013-02-01 02:55:00,
2013-01-31 22:00:00,30.1,17.9,29.49,NW,318,2.0,6.0,60,0.00,,CLR,0.37,VWS V14.01,2013-02-01 03:00:00,
2013-01-31 22:05:00,30.0,17.8,29.49,West,269,4.0,12.0,60,0.00,,CLR,0.37,VWS V14.01,2013-02-01 03:05:00,
2013-01-31 22:10:00,29.9,17.7,29.49,West,271,3.0,11.0,60,0.00,,CLR,0.37,VWS V14.01,2013-02-01 03:10:00,
2013-01-31 22:15:00,29.8,17.2,29.49,WNW,296,6.0,10.0,59,0.00,,CLR,0.37,VWS V14.01,2013-02-01 03:15:00,
2013-01-31 22:20:00,29.8,17.2,29.50,West,261,3.0,12.0,59,0.00,,CLR,0.37,VWS V14.01,2013-02-01 03:20:00,
2013-01-31 22:25:00,29.7,17.1,29.50,SSE,167,3.0,13.0,59,0.00,,CLR,0.37,VWS V14.01,2013-02-01 03:25:00,
2013-01-31 22:30:00,29.6,17.0,29.50,WSW,255,6.0,9.0,59,0.00,,CLR,0.37,VWS V14.01,2013-02-01 03:30:00,
2013-01-31 22:35:00,29.6,17.4,29.50,SSW,195,2.0,8.0,60,0.00,,CLR,0.37,VWS V14.01,2013-02-01 03:35:00,
2013-01-31 22:40:00,29.6,17.4,29.50,WSW,253,3.0,12.0,60,0.00,,CLR,0.37,VWS V14.01,2013-02-01 03:40:00,
2013-01-31 22:45:00,29.5,17.3,29.50,SE,142,1.0,8.0,60,0.00,,CLR,0.37,VWS V14.01,2013-02-01 03:45:00,
2013-01-31 22:50:00,29.3,17.5,29.50,SSE,153,0.0,6.0,61,0.00,,CLR,0.37,VWS V14.01,2013-02-01 03:50:00,
2013-01-31 22:55:00,29.2,17.4,29.50,SW,226,2.0,8.0,61,0.00,,CLR,0.37,VWS V14.01,2013-02-01 03:55:00,
2013-01-31 23:00:00,29.1,17.3,29.50,WSW,239,1.0,7.0,61,0.00,,CLR,0.37,VWS V14.01,2013-02-01 04:00:00,
2013-01-31 23:05:00,29.1,17.3,29.50,SW,224,3.0,8.0,61,0.00,,CLR,0.37,VWS V14.01,2013-02-01 04:05:00,
2013-01-31 23:10:00,29.0,16.9,29.50,SSW,210,2.0,13.0,60,0.00,,CLR,0.37,VWS V14.01,2013-02-01 04:10:00,
2013-01-31 23:15:00,29.0,17.2,29.50,SW,218,1.0,15.0,61,0.00,,CLR,0.37,VWS V14.01,2013-02-01 04:15:00,
2013-01-31 23:20:00,28.9,17.2,29.50,South,183,4.0,13.0,61,0.00,,CLR,0.37,VWS V14.01,2013-02-01 04:20:00,
2013-01-31 23:25:00,28.9,17.2,29.50,WSW,243,5.0,7.0,61,0.00,,CLR,0.37,VWS V14.01,2013-02-01 04:25:00,
2013-01-31 23:30:00,28.9,17.2,29.51,WSW,246,5.0,11.0,61,0.00,,CLR,0.37,VWS V14.01,2013-02-01 04:30:00,
2013-01-31 23:35:00,28.9,17.2,29.51,SW,215,0.0,15.0,61,0.00,,CLR,0.37,VWS V14.01,2013-02-01 04:35:00,
2013-01-31 23:40:00,28.8,17.1,29.51,WNW,288,7.0,8.0,61,0.00,,CLR,0.37,VWS V14.01,2013-02-01 04:40:00,
2013-01-31 23:45:00,28.8,17.8,29.51,West,270,3.0,12.0,63,0.00,,CLR,0.37,VWS V14.01,2013-02-01 04:45:00,
2013-01-31 23:50:00,28.7,18.1,29.51,SW,236,6.0,13.0,64,0.00,,CLR,0.37,VWS V14.01,2013-02-01 04:50:00,
2013-01-31 23:55:00,28.6,18.0,29.52,WNW,285,10.0,10.0,64,0.00,,CLR,0.37,VWS V14.01,2013-02-01 04:55:00,